When you browse on this site, cookies collect data to enhance your experience and personalize the content and advertising you see.
Visit our Privacy Policy to learn more. By continuing to use the site, you agree to this use of cookies and data.
  • In Spain
  • List of Countries
  • For 7 days
  • Water Temperature
  • Weather Map
  • Weather Widgets
  • user-avatar
    Login

    Hourly Weather Soma Bey

    Today, 29 February, Saturday

    Time Temperature Precipitation Wind Pressure Humidity
    00:00 +17°C° 0 mm 2 mps 749 mmHg 43%
    01:00 +17°C° 0 mm 2 mps 749 mmHg 42%
    02:00 +16°C° 0 mm 2 mps 748 mmHg 44%
    03:00 +16°C° 0 mm 2 mps 749 mmHg 41%
    04:00 +16°C° 0 mm 3 mps 749 mmHg 38%
    05:00 +16°C° 0 mm 3 mps 749 mmHg 35%
    06:00 +18°C° 0 mm 3 mps 749 mmHg 30%
    07:00 +21°C° 0 mm 4 mps 750 mmHg 25%
    08:00 +23°C° 0 mm 4 mps 750 mmHg 20%
    09:00 +25°C° 0 mm 5 mps 750 mmHg 20%
    10:00 +27°C° 0 mm 6 mps 750 mmHg 19%
    11:00 +28°C° 0 mm 7 mps 750 mmHg 18%
    12:00 +28°C° 0 mm 7 mps 749 mmHg 20%
    13:00 +28°C° 0 mm 7 mps 749 mmHg 22%
    14:00 +28°C° 0 mm 7 mps 748 mmHg 24%
    15:00 +27°C° 0 mm 7 mps 749 mmHg 27%
    16:00 +26°C° 0 mm 8 mps 749 mmHg 29%
    17:00 +24°C° 0 mm 8 mps 749 mmHg 32%
    18:00 +22°C° 0 mm 7 mps 749 mmHg 36%
    19:00 +18°C° 0 mm 7 mps 750 mmHg 39%
    20:00 +16°C° 0 mm 6 mps 750 mmHg 43%
    21:00 +15°C° 0 mm 6 mps 750 mmHg 43%
    22:00 +14°C° 0 mm 5 mps 751 mmHg 44%
    23:00 +14°C° 0 mm 5 mps 751 mmHg 44%

    Tomorrow, 1 March, Sunday

    Time Temperature Precipitation Wind Pressure Humidity
    00:00 +13°C° 0 mm 5 mps 751 mmHg 46%
    01:00 +13°C° 0 mm 5 mps 750 mmHg 47%
    02:00 +13°C° 0 mm 5 mps 750 mmHg 48%
    03:00 +12°C° 0 mm 5 mps 750 mmHg 53%
    04:00 +10°C° 0 mm 5 mps 751 mmHg 58%
    05:00 +10°C° 0 mm 5 mps 751 mmHg 63%
    06:00 +12°C° 0 mm 5 mps 751 mmHg 57%
    07:00 +14°C° 0 mm 5 mps 752 mmHg 52%
    08:00 +16°C° 0 mm 5 mps 752 mmHg 46%
    09:00 +19°C° 0 mm 5 mps 752 mmHg 40%
    10:00 +21°C° 0 mm 5 mps 752 mmHg 35%
    11:00 +23°C° 0 mm 6 mps 752 mmHg 29%
    12:00 +23°C° 0 mm 7 mps 752 mmHg 27%
    13:00 +24°C° 0 mm 8 mps 751 mmHg 25%
    14:00 +26°C° 0 mm 8 mps 751 mmHg 23%
    15:00 +24°C° 0 mm 9 mps 751 mmHg 25%
    16:00 +23°C° 0 mm 9 mps 751 mmHg 28%
    17:00 +22°C° 0 mm 9 mps 751 mmHg 31%
    18:00 +20°C° 0 mm 8 mps 751 mmHg 34%
    19:00 +17°C° 0 mm 7 mps 751 mmHg 36%
    20:00 +15°C° 0 mm 6 mps 752 mmHg 39%
    21:00 +14°C° 0 mm 6 mps 752 mmHg 40%
    22:00 +13°C° 0 mm 5 mps 752 mmHg 42%
    23:00 +12°C° 0 mm 5 mps 752 mmHg 43%

    Day after tomorrow, 2 March, Monday

    Time Temperature Precipitation Wind Pressure Humidity
    00:00 +12°C° 0 mm 4 mps 752 mmHg 43%
    01:00 +11°C° 0 mm 4 mps 752 mmHg 43%
    02:00 +11°C° 0 mm 4 mps 751 mmHg 43%
    03:00 +10°C° 0 mm 4 mps 751 mmHg 47%
    04:00 +10°C° 0 mm 4 mps 751 mmHg 52%
    05:00 +9°C° 0 mm 5 mps 751 mmHg 57%
    06:00 +12°C° 0 mm 5 mps 752 mmHg 49%
    07:00 +15°C° 0 mm 5 mps 752 mmHg 41%
    08:00 +17°C° 0 mm 5 mps 753 mmHg 33%
    09:00 +20°C° 0 mm 6 mps 753 mmHg 30%
    10:00 +22°C° 0 mm 6 mps 753 mmHg 27%
    11:00 +24°C° 0 mm 6 mps 752 mmHg 24%
    12:00 +24°C° 0 mm 7 mps 752 mmHg 27%
    13:00 +26°C° 0 mm 7 mps 751 mmHg 29%
    14:00 +26°C° 0 mm 7 mps 751 mmHg 31%
    15:00 +24°C° 0 mm 6 mps 751 mmHg 37%
    16:00 +23°C° 0 mm 6 mps 751 mmHg 42%
    17:00 +22°C° 0 mm 5 mps 751 mmHg 48%
    18:00 +19°C° 0 mm 5 mps 751 mmHg 56%
    19:00 +17°C° 0 mm 4 mps 751 mmHg 64%
    20:00 +14°C° 0 mm 4 mps 752 mmHg 71%
    21:00 +13°C° 0 mm 4 mps 752 mmHg 70%
    22:00 +13°C° 0 mm 4 mps 752 mmHg 69%
    23:00 +12°C° 0 mm 4 mps 752 mmHg 67%

    3 March, Tuesday

    Time Temperature Precipitation Wind Pressure Humidity
    00:00 +12°C° 0 mm 4 mps 752 mmHg 64%
    01:00 +12°C° 0 mm 4 mps 751 mmHg 60%
    02:00 +12°C° 0 mm 4 mps 751 mmHg 57%
    03:00 +11°C° 0 mm 4 mps 751 mmHg 56%
    04:00 +11°C° 0 mm 4 mps 751 mmHg 56%
    05:00 +11°C° 0 mm 4 mps 751 mmHg 55%
    06:00 +13°C° 0 mm 4 mps 751 mmHg 46%
    07:00 +17°C° 0 mm 4 mps 752 mmHg 36%
    08:00 +20°C° 0 mm 4 mps 752 mmHg 27%
    09:00 +22°C° 0 mm 5 mps 752 mmHg 24%
    10:00 +25°C° 0 mm 5 mps 752 mmHg 22%
    11:00 +27°C° 0 mm 6 mps 752 mmHg 19%
    12:00 +28°C° 0 mm 6 mps 751 mmHg 20%
    13:00 +28°C° 0 mm 5 mps 750 mmHg 21%
    14:00 +28°C° 0 mm 5 mps 750 mmHg 22%
    15:00 +27°C° 0 mm 4 mps 750 mmHg 25%
    16:00 +26°C° 0 mm 3 mps 750 mmHg 27%
    17:00 +25°C° 0 mm 2 mps 750 mmHg 30%
    18:00 +21°C° 0 mm 2 mps 750 mmHg 37%
    19:00 +19°C° 0 mm 2 mps 750 mmHg 44%
    20:00 +16°C° 0 mm 2 mps 750 mmHg 51%
    21:00 +16°C° 0 mm 2 mps 750 mmHg 49%
    22:00 +15°C° 0 mm 2 mps 750 mmHg 48%
    23:00 +15°C° 0 mm 2 mps 750 mmHg 47%

    4 March, Wednesday

    Time Temperature Precipitation Wind Pressure Humidity
    00:00 +14°C° 0 mm 2 mps 749 mmHg 51%
    01:00 +14°C° 0 mm 2 mps 749 mmHg 54%
    02:00 +14°C° 0 mm 2 mps 749 mmHg 58%
    03:00 +14°C° 0 mm 2 mps 749 mmHg 56%
    04:00 +13°C° 0 mm 2 mps 749 mmHg 55%
    05:00 +13°C° 0 mm 2 mps 749 mmHg 53%
    06:00 +17°C° 0 mm 2 mps 749 mmHg 39%
    07:00 +21°C° 0 mm 2 mps 749 mmHg 25%
    08:00 +25°C° 0 mm 2 mps 749 mmHg 11%
    09:00 +27°C° 0 mm 2 mps 749 mmHg 10%
    10:00 +29°C° 0 mm 3 mps 749 mmHg 10%
    11:00 +31°C° 0 mm 3 mps 749 mmHg 9%
    12:00 +32°C° 0 mm 4 mps 749 mmHg 11%
    13:00 +32°C° 0 mm 4 mps 748 mmHg 13%
    14:00 +32°C° 0 mm 4 mps 747 mmHg 15%
    15:00 +30°C° 0 mm 3 mps 747 mmHg 17%
    16:00 +29°C° 0 mm 2 mps 747 mmHg 19%
    17:00 +28°C° 0 mm 1 mps 747 mmHg 21%
    18:00 +25°C° 0 mm 1 mps 747 mmHg 25%
    19:00 +22°C° 0 mm 1 mps 747 mmHg 30%
    20:00 +19°C° 0 mm 1 mps 748 mmHg 34%
    21:00 +19°C° 0 mm 1 mps 748 mmHg 30%
    22:00 +19°C° 0 mm 1 mps 748 mmHg 26%
    23:00 +20°C° 0 mm 1 mps 748 mmHg 22%

    5 March, Thursday

    Time Temperature Precipitation Wind Pressure Humidity
    00:00 +19°C° 0 mm 1 mps 747 mmHg 25%
    01:00 +18°C° 0 mm 1 mps 747 mmHg 28%
    02:00 +17°C° 0 mm 2 mps 747 mmHg 31%
    03:00 +16°C° 0 mm 1 mps 747 mmHg 35%
    04:00 +16°C° 0 mm 1 mps 747 mmHg 38%
    05:00 +16°C° 0 mm 1 mps 747 mmHg 42%
    06:00 +20°C° 0 mm 1 mps 747 mmHg 32%
    07:00 +23°C° 0 mm 1 mps 747 mmHg 21%
    08:00 +26°C° 0 mm 1 mps 748 mmHg 11%
    09:00 +28°C° 0 mm 2 mps 748 mmHg 10%
    10:00 +31°C° 0 mm 2 mps 748 mmHg 8%
    11:00 +34°C° 0 mm 3 mps 748 mmHg 7%
    12:00 +34°C° 0 mm 4 mps 747 mmHg 9%
    13:00 +34°C° 0 mm 4 mps 746 mmHg 11%
    14:00 +33°C° 0 mm 4 mps 746 mmHg 13%
    15:00 +33°C° 0 mm 4 mps 746 mmHg 14%
    16:00 +32°C° 0 mm 4 mps 746 mmHg 15%
    17:00 +30°C° 0 mm 4 mps 745 mmHg 16%
    18:00 +28°C° 0 mm 4 mps 746 mmHg 16%
    19:00 +25°C° 0 mm 4 mps 746 mmHg 17%
    20:00 +22°C° 0 mm 3 mps 747 mmHg 17%
    21:00 +22°C° 0 mm 4 mps 747 mmHg 20%
    22:00 +21°C° 0 mm 5 mps 747 mmHg 22%
    23:00 +21°C° 0 mm 5 mps 748 mmHg 25%
    Show more